TimeCDT,TemperatureF,Dew PointF,Humidity,Sea Level PressureIn,VisibilityMPH,Wind Direction,Wind SpeedMPH,Gust SpeedMPH,PrecipitationIn,Events,Conditions,WindDirDegrees,DateUTC
12:13 AM,32.0,24.8,75,30.27,10.0,SSE,8.1,-,N/A,,Overcast,160,2012-10-28 05:13:00
12:34 AM,32.0,24.8,75,30.27,10.0,SSE,8.1,-,N/A,,Overcast,160,2012-10-28 05:34:00
12:53 AM,32.0,24.8,75,30.27,10.0,SSE,8.1,-,N/A,,Overcast,160,2012-10-28 05:53:00
1:13 AM,32.0,24.8,75,30.27,10.0,South,8.1,-,N/A,,Overcast,170,2012-10-28 06:13:00
1:34 AM,33.8,24.8,70,30.27,10.0,South,6.9,-,N/A,,Overcast,170,2012-10-28 06:34:00
1:53 AM,33.8,24.8,70,30.27,10.0,South,6.9,-,N/A,,Overcast,170,2012-10-28 06:53:00
2:13 AM,32.0,26.6,80,30.26,10.0,South,5.8,-,N/A,,Overcast,180,2012-10-28 07:13:00
2:34 AM,33.8,26.6,75,30.26,10.0,South,4.6,-,N/A,,Overcast,180,2012-10-28 07:34:00
2:53 AM,33.8,26.6,75,30.27,10.0,South,3.5,-,N/A,,Overcast,190,2012-10-28 07:53:00
3:13 AM,33.8,24.8,70,30.26,10.0,South,9.2,-,N/A,,Overcast,180,2012-10-28 08:13:00
3:34 AM,33.8,24.8,70,30.26,10.0,South,9.2,-,N/A,,Overcast,180,2012-10-28 08:34:00
3:53 AM,33.8,24.8,70,30.26,10.0,South,10.4,-,N/A,,Overcast,190,2012-10-28 08:53:00
4:13 AM,33.8,26.6,75,30.25,10.0,South,6.9,-,N/A,,Overcast,170,2012-10-28 09:13:00
4:33 AM,33.8,26.6,75,30.25,10.0,South,6.9,-,N/A,,Overcast,190,2012-10-28 09:33:00
4:53 AM,33.8,26.6,75,30.25,10.0,South,5.8,-,N/A,,Overcast,180,2012-10-28 09:53:00
5:13 AM,33.8,26.6,75,30.25,7.0,South,5.8,-,N/A,,Overcast,180,2012-10-28 10:13:00
5:33 AM,33.8,26.6,75,30.26,7.0,South,4.6,-,N/A,Snow,Light Snow,190,2012-10-28 10:33:00
5:53 AM,32.0,28.4,87,30.26,7.0,South,3.5,-,N/A,Snow,Light Snow,190,2012-10-28 10:53:00
6:13 AM,32.0,28.4,87,30.26,2.5,South,3.5,-,N/A,Snow,Light Snow,180,2012-10-28 11:13:00
6:33 AM,32.0,28.4,87,30.26,10.0,South,5.8,-,N/A,,Overcast,180,2012-10-28 11:33:00
6:53 AM,32.0,28.4,87,30.26,7.0,South,3.5,-,N/A,Snow,Light Snow,190,2012-10-28 11:53:00
7:14 AM,32.0,28.4,87,30.27,10.0,South,3.5,-,N/A,,Overcast,180,2012-10-28 12:14:00
7:33 AM,32.0,28.4,87,30.27,10.0,South,4.6,-,N/A,,Overcast,170,2012-10-28 12:33:00
7:53 AM,32.0,28.4,87,30.27,10.0,South,4.6,-,N/A,,Overcast,180,2012-10-28 12:53:00
8:14 AM,32.0,28.4,87,30.27,10.0,South,6.9,-,N/A,,Overcast,170,2012-10-28 13:14:00
8:33 AM,32.0,28.4,87,30.28,10.0,South,5.8,-,N/A,,Overcast,180,2012-10-28 13:33:00
8:53 AM,32.0,30.2,93,30.27,10.0,South,8.1,-,N/A,,Overcast,180,2012-10-28 13:53:00
9:33 AM,33.8,30.2,87,30.27,5.0,South,10.4,-,N/A,Snow,Light Snow,180,2012-10-28 14:33:00
9:53 AM,33.8,30.2,87,30.27,7.0,South,10.4,-,N/A,,Overcast,170,2012-10-28 14:53:00
10:14 AM,33.8,30.2,87,30.27,5.0,South,8.1,-,N/A,Snow,Light Snow,180,2012-10-28 15:14:00
10:33 AM,35.6,30.2,81,30.27,10.0,South,10.4,-,N/A,,Overcast,170,2012-10-28 15:33:00
10:53 AM,35.6,30.2,81,30.27,10.0,South,9.2,-,N/A,,Overcast,180,2012-10-28 15:53:00
11:13 AM,37.4,30.2,75,30.26,10.0,South,10.4,-,N/A,,Overcast,190,2012-10-28 16:13:00
11:33 AM,37.4,30.2,75,30.25,10.0,South,9.2,-,N/A,,Overcast,170,2012-10-28 16:33:00
11:53 AM,39.2,30.2,70,30.25,10.0,SSE,9.2,-,N/A,,Mostly Cloudy,150,2012-10-28 16:53:00
12:13 PM,37.4,30.2,75,30.25,10.0,SSE,6.9,-,N/A,,Mostly Cloudy,160,2012-10-28 17:13:00
12:33 PM,37.4,30.2,75,30.25,10.0,SSE,6.9,-,N/A,,Overcast,160,2012-10-28 17:33:00
12:53 PM,41.0,30.2,65,30.24,10.0,SSE,6.9,-,N/A,,Overcast,150,2012-10-28 17:53:00
1:13 PM,42.8,30.2,61,30.24,10.0,SSE,4.6,-,N/A,,Scattered Clouds,160,2012-10-28 18:13:00
1:33 PM,42.8,30.2,61,30.24,10.0,South,6.9,-,N/A,,Scattered Clouds,170,2012-10-28 18:33:00
1:53 PM,42.8,30.2,61,30.23,10.0,SSE,8.1,-,N/A,,Scattered Clouds,150,2012-10-28 18:53:00
2:13 PM,42.8,30.2,61,30.23,10.0,South,6.9,-,N/A,,Scattered Clouds,170,2012-10-28 19:13:00
2:33 PM,44.6,30.2,57,30.23,10.0,SSE,10.4,-,N/A,,Scattered Clouds,160,2012-10-28 19:33:00
2:53 PM,42.8,30.2,61,30.22,10.0,South,8.1,-,N/A,,Mostly Cloudy,170,2012-10-28 19:53:00
3:13 PM,42.8,30.2,61,30.22,10.0,SE,9.2,-,N/A,,Mostly Cloudy,140,2012-10-28 20:13:00
3:33 PM,42.8,30.2,61,30.21,10.0,SE,8.1,-,N/A,,Mostly Cloudy,140,2012-10-28 20:33:00
3:54 PM,42.8,30.2,61,30.21,10.0,SSE,10.4,-,N/A,,Mostly Cloudy,150,2012-10-28 20:54:00
4:13 PM,42.8,30.2,61,30.21,10.0,SSE,10.4,-,N/A,,Mostly Cloudy,150,2012-10-28 21:13:00
4:33 PM,42.8,32.0,66,30.21,10.0,SSE,9.2,-,N/A,,Mostly Cloudy,150,2012-10-28 21:33:00
4:54 PM,42.8,30.2,61,30.21,10.0,SSE,10.4,-,N/A,,Mostly Cloudy,150,2012-10-28 21:54:00
5:13 PM,42.8,32.0,66,30.21,10.0,SE,11.5,-,N/A,,Overcast,140,2012-10-28 22:13:00
5:33 PM,42.8,30.2,61,30.21,10.0,SE,11.5,-,N/A,,Overcast,130,2012-10-28 22:33:00
5:53 PM,42.8,32.0,66,30.21,10.0,SE,8.1,-,N/A,,Overcast,130,2012-10-28 22:53:00
6:13 PM,41.0,30.2,65,30.21,10.0,ESE,8.1,-,N/A,,Mostly Cloudy,120,2012-10-28 23:13:00
6:33 PM,39.2,32.0,75,30.21,10.0,ESE,8.1,-,N/A,,Mostly Cloudy,120,2012-10-28 23:33:00
6:53 PM,39.2,30.2,70,30.21,10.0,ESE,8.1,-,N/A,,Scattered Clouds,120,2012-10-28 23:53:00
7:13 PM,39.2,30.2,70,30.21,10.0,ESE,6.9,-,N/A,,Scattered Clouds,120,2012-10-29 00:13:00
7:33 PM,39.2,32.0,75,30.22,10.0,ESE,8.1,-,N/A,,Scattered Clouds,110,2012-10-29 00:33:00
7:53 PM,39.2,30.2,70,30.22,10.0,ESE,9.2,-,N/A,,Scattered Clouds,110,2012-10-29 00:53:00
8:13 PM,39.2,30.2,70,30.22,10.0,ESE,9.2,-,N/A,,Scattered Clouds,120,2012-10-29 01:13:00
8:53 PM,37.4,30.2,75,30.21,10.0,ESE,9.2,-,N/A,,Scattered Clouds,120,2012-10-29 01:53:00
9:13 PM,35.6,30.2,81,30.21,10.0,ESE,8.1,-,N/A,,Scattered Clouds,120,2012-10-29 02:13:00
9:34 PM,35.6,30.2,81,30.21,10.0,ESE,6.9,-,N/A,,Overcast,120,2012-10-29 02:34:00
9:53 PM,35.6,30.2,81,30.22,10.0,ESE,8.1,-,N/A,,Overcast,120,2012-10-29 02:53:00
10:13 PM,35.6,30.2,81,30.22,10.0,SE,8.1,-,N/A,,Overcast,130,2012-10-29 03:13:00
10:34 PM,35.6,30.2,81,30.22,10.0,ESE,8.1,-,N/A,,Overcast,120,2012-10-29 03:34:00
10:53 PM,35.6,30.2,81,30.22,10.0,ESE,8.1,-,N/A,,Overcast,120,2012-10-29 03:53:00
11:13 PM,35.6,30.2,81,30.22,10.0,ESE,6.9,-,N/A,,Overcast,110,2012-10-29 04:13:00
11:34 PM,35.6,30.2,81,30.22,10.0,ESE,5.8,-,N/A,,Overcast,120,2012-10-29 04:34:00
11:53 PM,35.6,30.2,81,30.22,10.0,ESE,4.6,-,N/A,,Scattered Clouds,120,2012-10-29 04:53:00